Weather History for De Bilt, Netherlands

Change the Weather History Date:

Tuesday, May 13, 2014

  Actual Average Record
Temperature  
Mean Temperature 50 °F -  
Max Temperature 59 °F - - ()
Min Temperature 42 °F - - ()
Degree Days  
Heating Degree Days 14    
Moisture  
Dew Point 43 °F    
Average Humidity 71    
Maximum Humidity 100    
Minimum Humidity 38    
Precipitation  
Precipitation 0.00 in - - ()
Sea Level Pressure  
Sea Level Pressure 30.01 in    
Wind  
Wind Speed 4 mph ()    
Max Wind Speed 11 mph    
Max Gust Speed -    
Visibility 7.2 miles    
Events Fog , Rain    
T = Trace of Precipitation, MM = Missing Value Source: Averaged Metar Reports

Daily Weather History Graph

Daily Weather History Graph

Search for Another Location

Airport:

Trip Planner

Search our weather history database for the weather conditions in past years. The results will help you decide how hot, cold, wet, or windy it might be!

Date:

Astronomy

May. 13, 2014 Rise Set
Actual Time 5:48 AM CEST 9:23 PM CEST
Civil Twilight 5:06 AM CEST 10:05 PM CEST
Nautical Twilight 4:09 AM CEST 11:03 PM CEST
Astronomical Twilight 2:44 AM CEST 12:31 AM CEST
Moon 7:57 PM CEST (5/13) 5:09 AM CEST (5/13)
Length of Visible Light 16h 59m
Length of Day
15h 35m
Waxing Gibbous, 98% of the Moon is Illuminated
May 13
Waxing Gibbous
May 14
Full
May 21
Last Quarter
May 28
New
Jun 5
First Quarter

Hourly Weather History & Observations

Time (CEST) Temp. Dew Point Humidity Pressure Visibility Wind Dir Wind Speed Gust Speed Precip Events Conditions
12:00 AM 46 °F 45 °F 96% 29.88 in 3 mi SW 2.2 mph - -   Mist
1:00 AM 46 °F 45 °F 96% 29.88 in 2 mi WSW 2.2 mph - - Fog Fog
2:00 AM 43 °F 43 °F 98% 29.88 in 0 mi SSW 2.2 mph - - Fog Fog
3:00 AM 43 °F 43 °F 100% 29.88 in 0 mi SE 2.2 mph - - Fog Fog
4:00 AM 44 °F 44 °F 100% 29.88 in 2 mi SE 2.2 mph - - Fog Fog
5:00 AM 45 °F 45 °F 100% 29.89 in 2 mi SE 2.2 mph - - Fog Fog
6:00 AM 47 °F 46 °F 97% 29.90 in 2 mi SE 2.2 mph - - Rain Light Rain Showers
7:00 AM 48 °F 47 °F 97% 29.91 in 3 mi NNW 2.2 mph - - Rain Light Rain Showers
8:00 AM 49 °F 48 °F 97% 29.93 in 3 mi WNW 2.2 mph - - Rain Rain
9:00 AM 52 °F 46 °F 75% 29.94 in 11 mi NNW 4.5 mph - -   Overcast
10:00 AM 52 °F 44 °F 67% 29.96 in 19 mi North 6.7 mph - -   Scattered Clouds
11:00 AM 54 °F 43 °F 57% 29.98 in 22 mi North 6.7 mph - -   Scattered Clouds
12:00 PM 54 °F 43 °F 56% 30.00 in 19 mi NW 6.7 mph - -   Scattered Clouds
1:00 PM 54 °F 44 °F 58% 30.02 in 25 mi NNW 6.7 mph - -   Overcast
2:00 PM 56 °F 43 °F 50% 30.04 in 22 mi NNW 8.9 mph - -   Partly Cloudy
3:00 PM 57 °F 40 °F 43% 30.05 in 16 mi North 11.2 mph - -   Partly Cloudy
4:00 PM 57 °F 40 °F 41% 30.07 in 22 mi North 11.2 mph - -   Partly Cloudy
5:00 PM 58 °F 40 °F 39% 30.09 in 19 mi NNW 11.2 mph - -   Partly Cloudy
6:00 PM 56 °F 38 °F 39% 30.11 in 25 mi North 11.2 mph - -   Scattered Clouds
7:00 PM 56 °F 38 °F 38% 30.13 in 25 mi NNW 8.9 mph - -  
8:00 PM 54 °F 38 °F 44% 30.16 in 28 mi North 8.9 mph - -   Partly Cloudy
9:00 PM 52 °F 42 °F 58% 30.18 in 28 mi NNW 4.5 mph - -  
10:00 PM 48 °F 41 °F 70% 30.21 in 28 mi NW 4.5 mph - -  
11:00 PM 46 °F 42 °F 80% 30.22 in 25 mi WNW 4.5 mph - -